Cleveland, OH

2:00 AM EDT on April 25, 2018 (GMT -0400)
Cleveland-Hopkins International

Weather History for KCLE - July, 2013

Change the Weather History Date:

Friday, July 12, 2013

  Actual Average Record
Temperature  
Mean Temperature 69 °F 74 °F  
Max Temperature 78 °F 83 °F 95 °F (1936)
Min Temperature 60 °F 64 °F 48 °F (1973)
Degree Days  
Heating Degree Days 0 0  
Month to date heating degree days 0 0  
Since 1 June heating degree days 39 42  
Since 1 July heating degree days 0 0  
Cooling Degree Days 4 9  
Month to date cooling degree days 114 103  
Year to date cooling degree days 392 330  
Since 1 June cooling degree days 278 271  
Growing Degree Days 19 (Base 50)    
Moisture  
Dew Point 61 °F    
Average Humidity 75    
Maximum Humidity 90    
Minimum Humidity 60    
Precipitation  
Precipitation 0.00 in 0.10 in 1.67 in (1992)
Month to date precipitation 2.92 1.30  
Year to date precipitation 23.41 19.87  
Snow  
Snow 0.00 in 0.00 in - ()
Month to date snowfall 0.0 0.0  
Since 1 June snowfall 0.0 0.0  
Since 1 July snowfall 0.0 0.0  
Snow Depth 0.00 in    
Sea Level Pressure  
Sea Level Pressure 30.10 in    
Wind  
Wind Speed 9 mph (NNE)    
Max Wind Speed 20 mph    
Max Gust Speed 23 mph    
Visibility 10 miles    
Events      
T = Trace of Precipitation, MM = Missing Value Source: NWS Daily Summary

Daily Weather History Graph

Daily Weather History Graph

Search for Another Location

Airport or City:

Astronomy

Jul. 12, 2013 Rise Set
Actual Time 6:04 AM EDT 9:00 PM EDT
Civil Twilight 5:31 AM EDT 9:33 PM EDT
Nautical Twilight 4:49 AM EDT 10:15 PM EDT
Astronomical Twilight 4:00 AM EDT 11:04 PM EDT
Moon 10:23 AM EDT (7/12) 11:06 PM EDT (7/12)
Length of Visible Light 16h 02m
Length of Day
14h 56m
Waxing Crescent, 17% of the Moon is Illuminated
Jul 12
Waxing Crescent
Jul 15
First Quarter
Jul 22
Full
Jul 29
Last Quarter
Aug 6
New

Hourly Weather History & Observations

Time (EDT) Temp. Dew Point Humidity Pressure Visibility Wind Dir Wind Speed Gust Speed Precip Events Conditions
12:51 AM 66.0 °F 55.9 °F 70% 30.06 in 10.0 mi NNE 6.9 mph - N/A   Clear
1:51 AM 64.9 °F 55.9 °F 73% 30.06 in 10.0 mi NNE 4.6 mph - N/A   Clear
2:51 AM 64.9 °F 55.9 °F 73% 30.06 in 10.0 mi North 5.8 mph - N/A   Clear
3:51 AM 64.9 °F 57.9 °F 78% 30.06 in 10.0 mi North 3.5 mph - N/A   Clear
4:36 AM 62.1 °F 57.9 °F 86% 30.08 in 10.0 mi Calm Calm - N/A   Mostly Cloudy
4:51 AM 63.0 °F 59.0 °F 87% 30.07 in 10.0 mi SSE 5.8 mph - N/A   Mostly Cloudy
5:01 AM 61.0 °F 57.9 °F 90% 30.09 in 10.0 mi South 3.5 mph - N/A   Scattered Clouds
5:51 AM 60.1 °F 57.0 °F 90% 30.09 in 10.0 mi WSW 3.5 mph - N/A   Partly Cloudy
6:51 AM 62.1 °F 57.9 °F 86% 30.10 in 10.0 mi Calm Calm - N/A   Partly Cloudy
7:51 AM 66.9 °F 61.0 °F 81% 30.12 in 10.0 mi Calm Calm - N/A   Clear
8:51 AM 72.0 °F 57.9 °F 61% 30.13 in 10.0 mi NE 8.1 mph - N/A   Clear
9:51 AM 75.0 °F 60.1 °F 60% 30.12 in 10.0 mi NE 10.4 mph - N/A   Scattered Clouds
10:51 AM 73.0 °F 63.0 °F 71% 30.13 in 10.0 mi North 10.4 mph - N/A   Mostly Cloudy
11:51 AM 75.9 °F 63.0 °F 64% 30.13 in 10.0 mi North 11.5 mph - N/A   Scattered Clouds
12:51 PM 75.9 °F 64.9 °F 69% 30.12 in 10.0 mi North 13.8 mph - N/A   Scattered Clouds
1:51 PM 75.9 °F 63.0 °F 64% 30.12 in 10.0 mi NNE 13.8 mph - N/A   Scattered Clouds
2:51 PM 73.9 °F 61.0 °F 64% 30.12 in 10.0 mi NNE 16.1 mph - N/A   Mostly Cloudy
3:51 PM 75.0 °F 60.1 °F 60% 30.12 in 10.0 mi NNE 17.3 mph 23.0 mph N/A   Mostly Cloudy
4:51 PM 75.0 °F 63.0 °F 66% 30.11 in 10.0 mi NNE 13.8 mph - N/A   Mostly Cloudy
5:51 PM 75.9 °F 63.0 °F 64% 30.10 in 10.0 mi North 11.5 mph - N/A   Scattered Clouds
6:51 PM 75.0 °F 63.0 °F 66% 30.11 in 10.0 mi North 11.5 mph - N/A   Mostly Cloudy
7:51 PM 73.9 °F 63.0 °F 68% 30.12 in 10.0 mi North 9.2 mph - N/A   Scattered Clouds
8:51 PM 73.0 °F 64.0 °F 73% 30.11 in 10.0 mi NNE 8.1 mph - N/A   Mostly Cloudy
9:51 PM 72.0 °F 64.0 °F 76% 30.12 in 10.0 mi NE 8.1 mph - N/A   Scattered Clouds
10:51 PM 71.1 °F 64.0 °F 78% 30.13 in 10.0 mi North 3.5 mph - N/A   Scattered Clouds
11:51 PM 72.0 °F 62.1 °F 71% 30.13 in 10.0 mi NE 5.8 mph - N/A   Scattered Clouds